This demonstration page uses our WeatherBlox Daily Observations layout. Learn more.

38.89511, -77.03637

Hourly Observations for February 11, 2015

Temp ( °F °C ) Dew Point ( °F °C ) Humidity (%) Winds ( mph kmh ) Pressure ( in mb ) Visibility ( mi km ) Precip ( " mm )
12:52 am 00:52 Clear 32 0 22 -5.6 66 66 N 13 20 30.06 1018 10 16.0934 0 0
1:52 am 01:52 Clear 32 0 21 -6.1 64 64 N 13 20 30.06 1018 10 16.0934 0 0
2:52 am 02:52 Clear 31 -0.6 21 -6.1 67 67 N 13 20 30.07 1018 10 16.0934 0 0
3:52 am 03:52 Clear 31 -0.6 21 -6.1 67 67 NNW 12 19 30.06 1018 10 16.0934 0 0
4:52 am 04:52 Clear 31 -0.6 20 -6.7 64 64 N 14 22 30.08 1019 10 16.0934 0 0
5:52 am 05:52 Mostly Clear 30 -1.1 20 -6.7 66 66 NNW 10 17 30.09 1019 10 16.0934 0 0
6:52 am 06:52 Mostly Clear 30 -1.1 20 -6.7 66 66 N 9 15 30.08 1019 10 16.0934 0 0
7:52 am 07:52 Mostly Sunny 31 -0.6 20 -6.7 64 64 NNW 14 22 30.1 1019 10 16.0934 0 0
8:52 am 08:52 Mostly Sunny 34 1.1 20 -6.7 56 56 N 9 15 30.11 1020 10 16.0934 0 0
9:52 am 09:52 Mostly Sunny 36 2.2 19 -7.2 50 50 N 8 13 30.1 1019 10 16.0934 0 0
10:52 am 10:52 Sunny 38 3.3 18 -7.8 44 44 NE 8 13 30.08 1019 10 16.0934 0 0
11:52 am 11:52 Mostly Sunny 40 4.4 18 -7.8 41 41 NE 5 7 30.06 1018 10 16.0934 0 0
12:52 pm 12:52 Mostly Sunny 42 5.6 18 -7.8 38 38 E 3 6 30.02 1017 10 16.0934 0 0
1:52 pm 13:52 Partly Cloudy 44 6.7 19 -7.2 37 37 E 5 7 29.99 1016 10 16.0934 0 0
2:52 pm 14:52 Partly Cloudy 46 7.8 18 -7.8 32 32 Calm 29.98 1015 10 16.0934 0 0
3:52 pm 15:52 Mostly Cloudy 44 6.7 18 -7.8 35 35 SSE 3 6 29.96 1015 10 16.0934 0 0
4:52 pm 16:52 Partly Cloudy 44 6.7 20 -6.7 38 38 S 6 9 29.96 1014 10 16.0934 0 0
5:32 pm 17:32 Mostly Cloudy 43 6 18 -8 36 36 S 6 9 29.97 1015 10 16.0934 0 0
5:52 pm 17:52 Mostly Cloudy 42 5.6 17 -8.3 36 36 S 7 11 29.96 1014 10 16.0934 0 0
6:52 pm 18:52 Mostly Clear 38 3.3 20 -6.7 48 48 SSE 5 7 29.96 1015 10 16.0934 0 0
7:52 pm 19:52 Cloudy 37 2.8 20 -6.7 50 50 S 7 11 29.96 1014 10 16.0934 0 0
8:11 pm 20:11 Cloudy 37 3 21 -6 52 52 S 6 9 29.97 1015 10 16.0934 0 0
8:52 pm 20:52 Cloudy 37 2.8 22 -5.6 54 54 Calm 29.96 1015 10 16.0934 0 0
9:52 pm 21:52 Cloudy 37 2.8 24 -4.4 59 59 S 5 7 29.95 1014 10 16.0934 0 0
10:52 pm 22:52 Mostly Cloudy 36 2.2 23 -5 59 59 S 7 11 29.93 1014 10 16.0934 0 0
11:52 pm 23:52 Mostly Cloudy 35 1.7 25 -3.9 67 67 S 8 13 29.92 1013 10 16.0934 0 0

Powered by AerisWeather